ANZ457 NZAA-NZWN

Flight info

Callsign ANZ457
Flight time 0h 47m
Altitude 34000
Route IGBAT Y506 TPAPA
Aircraft A320/M-SDE3FGHIRWY/LB1

Departure

Time 2026-05-04 08:16
Airport Auckland International Airport (NZAA)

Arrival

Time 2026-05-04 09:03
Airport Wellington International Airport (NZWN)
Time Latitude Longitude Altitude Speed Heading
2026-05-04 07:57 -37.00713 174.79097 26 ft 0 kts 341°
2026-05-04 08:05 -37.00718 174.79099 25 ft 2 kts 340°
2026-05-04 08:06 -37.00736 174.79108 28 ft 3 kts 335°
2026-05-04 08:06 -37.00754 174.79119 28 ft 3 kts 326°
2026-05-04 08:06 -37.00770 174.79135 28 ft 3 kts 304°
2026-05-04 08:06 -37.00777 174.79153 29 ft 2 kts 258°
2026-05-04 08:08 -37.00776 174.79158 25 ft 0 kts 251°
2026-05-04 08:10 -37.01035 174.78177 26 ft 28 kts 255°
2026-05-04 08:11 -37.01095 174.77955 26 ft 27 kts 250°
2026-05-04 08:11 -37.01240 174.77754 27 ft 16 kts 159°
2026-05-04 08:11 -37.01325 174.77793 30 ft 0 kts 160°
2026-05-04 08:12 -37.01329 174.77795 28 ft 0 kts 160°
2026-05-04 08:12 -37.01335 174.77797 26 ft 1 kts 160°
2026-05-04 08:13 -37.01361 174.77809 27 ft 10 kts 160°
2026-05-04 08:13 -37.01407 174.77888 26 ft 14 kts 81°
2026-05-04 08:13 -37.01398 174.77921 26 ft 0 kts 71°
2026-05-04 08:14 -37.01394 174.77938 28 ft 20 kts 71°
2026-05-04 08:14 -37.01239 174.78507 30 ft 114 kts 70°
2026-05-04 08:14 -37.00896 174.79726 203 ft 167 kts 72°
2026-05-04 08:16 -37.08361 174.80911 6349 ft 281 kts 210°
2026-05-04 08:16 -37.10039 174.79601 7214 ft 287 kts 210°
2026-05-04 08:16 -37.11842 174.78521 8036 ft 290 kts 194°
2026-05-04 08:17 -37.13809 174.77872 8915 ft 293 kts 192°
2026-05-04 08:17 -37.15793 174.77242 9785 ft 297 kts 192°
2026-05-04 08:17 -37.17828 174.76605 10421 ft 311 kts 192°
2026-05-04 08:17 -37.19971 174.75939 10682 ft 334 kts 192°
2026-05-04 08:19 -37.37114 174.70539 15121 ft 377 kts 193°
2026-05-04 08:19 -37.39670 174.69731 15736 ft 380 kts 193°
2026-05-04 08:20 -37.42248 174.68913 16341 ft 384 kts 193°
2026-05-04 08:20 -37.44849 174.68087 16932 ft 387 kts 193°
2026-05-04 08:20 -37.47472 174.67255 17538 ft 391 kts 193°
2026-05-04 08:20 -37.50114 174.66414 18132 ft 394 kts 193°
2026-05-04 08:21 -37.52791 174.65562 18746 ft 398 kts 193°
2026-05-04 08:21 -37.55487 174.64706 19302 ft 401 kts 193°
2026-05-04 08:21 -37.58200 174.63847 19861 ft 404 kts 193°
2026-05-04 08:21 -37.60938 174.62983 20427 ft 407 kts 193°
2026-05-04 08:22 -37.63695 174.62107 20993 ft 409 kts 193°
2026-05-04 08:22 -37.66464 174.61222 21540 ft 412 kts 193°
2026-05-04 08:24 -37.86352 174.54860 24911 ft 430 kts 194°
2026-05-04 08:24 -37.89255 174.53922 25316 ft 432 kts 194°
2026-05-04 08:24 -37.92181 174.52978 25719 ft 435 kts 194°
2026-05-04 08:24 -37.95117 174.52034 26115 ft 437 kts 194°
2026-05-04 08:25 -37.98085 174.51183 26497 ft 439 kts 188°
2026-05-04 08:25 -38.01130 174.50733 26874 ft 441 kts 186°
2026-05-04 08:25 -38.04190 174.50317 27270 ft 444 kts 186°
2026-05-04 08:25 -38.07269 174.49896 27667 ft 446 kts 186°
2026-05-04 08:26 -38.10362 174.49469 28065 ft 448 kts 186°
2026-05-04 08:27 -38.32456 174.46390 30867 ft 460 kts 186°
2026-05-04 08:28 -38.35628 174.45945 31344 ft 459 kts 186°
2026-05-04 08:28 -38.38801 174.45500 31814 ft 457 kts 186°
2026-05-04 08:28 -38.41958 174.45056 32281 ft 456 kts 186°
2026-05-04 08:28 -38.45113 174.44617 32753 ft 455 kts 186°
2026-05-04 08:29 -38.48254 174.44183 33230 ft 454 kts 186°
2026-05-04 08:29 -38.51388 174.43749 33708 ft 452 kts 186°
2026-05-04 08:29 -38.54516 174.43309 34192 ft 451 kts 186°
2026-05-04 08:31 -38.75510 174.40342 34581 ft 467 kts 186°
2026-05-04 08:33 -39.01349 174.36680 34586 ft 467 kts 186°
2026-05-04 08:35 -39.27282 174.37214 34599 ft 466 kts 177°
2026-05-04 08:35 -39.33708 174.37576 34601 ft 465 kts 177°
2026-05-04 08:37 -39.56368 174.38896 34591 ft 464 kts 177°
2026-05-04 08:38 -39.62818 174.39270 34588 ft 464 kts 176°
2026-05-04 08:38 -39.69271 174.39648 34584 ft 464 kts 176°
2026-05-04 08:40 -39.95044 174.41157 34572 ft 463 kts 176°
2026-05-04 08:41 -40.01478 174.41538 34559 ft 463 kts 176°
2026-05-04 08:41 -40.04702 174.41729 34040 ft 462 kts 176°
2026-05-04 08:41 -40.07910 174.41917 33766 ft 462 kts 176°
2026-05-04 08:41 -40.11111 174.42104 33498 ft 453 kts 176°
2026-05-04 08:42 -40.14179 174.42281 33226 ft 431 kts 176°
2026-05-04 08:42 -40.17107 174.42449 32964 ft 413 kts 176°
2026-05-04 08:42 -40.19962 174.42615 32710 ft 407 kts 176°
2026-05-04 08:42 -40.22798 174.42785 32022 ft 411 kts 176°
2026-05-04 08:43 -40.25630 174.42958 31480 ft 402 kts 176°
2026-05-04 08:43 -40.28409 174.43127 30709 ft 399 kts 176°
2026-05-04 08:43 -40.31170 174.43294 29833 ft 395 kts 176°
2026-05-04 08:43 -40.33890 174.43457 29080 ft 390 kts 176°
2026-05-04 08:44 -40.36582 174.43614 28463 ft 381 kts 176°
2026-05-04 08:44 -40.39197 174.43767 27920 ft 372 kts 176°
2026-05-04 08:46 -40.56372 174.44788 24314 ft 354 kts 176°
2026-05-04 08:46 -40.58844 174.44936 23740 ft 357 kts 176°
2026-05-04 08:46 -40.61322 174.45086 23227 ft 357 kts 176°
2026-05-04 08:46 -40.63803 174.45236 22737 ft 356 kts 176°
2026-05-04 08:47 -40.66260 174.45385 22284 ft 354 kts 176°
2026-05-04 08:47 -40.68708 174.45534 21889 ft 349 kts 176°
2026-05-04 08:47 -40.71106 174.45706 21304 ft 341 kts 175°
2026-05-04 08:47 -40.73429 174.46012 20874 ft 334 kts 172°
2026-05-04 08:48 -40.75738 174.46417 20435 ft 334 kts 171°
2026-05-04 08:48 -40.78014 174.46859 20006 ft 335 kts 171°
2026-05-04 08:48 -40.80321 174.47312 19573 ft 335 kts 171°
2026-05-04 08:48 -40.82634 174.47752 19118 ft 337 kts 172°
2026-05-04 08:49 -40.84965 174.48183 18683 ft 337 kts 172°
2026-05-04 08:50 -40.98062 174.50508 15774 ft 313 kts 172°
2026-05-04 08:50 -41.00269 174.50897 15176 ft 321 kts 173°
2026-05-04 08:51 -41.02452 174.51284 14772 ft 313 kts 173°
2026-05-04 08:51 -41.04606 174.51668 14156 ft 310 kts 173°
2026-05-04 08:51 -41.06727 174.52046 13495 ft 307 kts 173°
2026-05-04 08:51 -41.08829 174.52432 12895 ft 302 kts 172°
2026-05-04 08:52 -41.10877 174.52855 12385 ft 295 kts 172°
2026-05-04 08:52 -41.12895 174.53297 11934 ft 294 kts 171°
2026-05-04 08:52 -41.14234 174.53593 11630 ft 296 kts 172°
2026-05-04 08:52 -41.14708 174.53698 11517 ft 297 kts 172°
2026-05-04 08:53 -41.15966 174.53941 11428 ft 288 kts 173°
2026-05-04 08:54 -41.29219 174.56877 8160 ft 254 kts 167°
2026-05-04 08:55 -41.30863 174.57676 7767 ft 249 kts 158°
2026-05-04 08:55 -41.32433 174.58590 7378 ft 244 kts 158°
2026-05-04 08:55 -41.33973 174.59486 7002 ft 239 kts 158°
2026-05-04 08:55 -41.35482 174.60364 6617 ft 234 kts 158°
2026-05-04 08:57 -41.44373 174.67732 4196 ft 195 kts 138°
2026-05-04 09:01 -41.39448 174.80232 1199 ft 127 kts
2026-05-04 09:01 -41.38564 174.80291 1026 ft 126 kts
2026-05-04 09:01 -41.37687 174.80349 858 ft 127 kts
2026-05-04 09:01 -41.36795 174.80408 682 ft 129 kts
2026-05-04 09:02 -41.35904 174.80467 496 ft 128 kts
2026-05-04 09:02 -41.35021 174.80538 351 ft 127 kts
2026-05-04 09:02 -41.34134 174.80589 192 ft 127 kts
2026-05-04 09:02 -41.33254 174.80653 37 ft 123 kts
2026-05-04 09:03 -41.32510 174.80709 33 ft 93 kts
2026-05-04 09:03 -41.32118 174.80729 46 ft 28 kts
2026-05-04 09:03 -41.31962 174.80744 50 ft 13 kts
2026-05-04 09:03 -41.31902 174.80769 51 ft 9 kts 59°
2026-05-04 09:04 -41.31895 174.80827 53 ft 2 kts 89°
2026-05-04 09:04 -41.31912 174.80861 51 ft 8 kts 144°
2026-05-04 09:04 -41.31992 174.80864 49 ft 16 kts 182°
2026-05-04 09:04 -41.32138 174.80857 45 ft 26 kts 184°
2026-05-04 09:05 -41.32348 174.80841 38 ft 34 kts 181°
2026-05-04 09:05 -41.32577 174.80826 29 ft 29 kts 185°
2026-05-04 09:05 -41.32771 174.80808 26 ft 22 kts 182°
2026-05-04 09:05 -41.32844 174.80807 26 ft 8 kts 181°
2026-05-04 09:06 -41.32912 174.80804 26 ft 11 kts 184°
2026-05-04 09:07 -41.33071 174.80987 26 ft 0 kts 14°
2026-05-04 09:08 -41.33064 174.80990 26 ft 0 kts 14°
2026-05-04 09:08 -41.33062 174.80990 26 ft 0 kts 14°